Change the Weather History Date:

Saturday, June 29, 2013

  Actual Average (KBKV) Record (KBKV)
Temperature  
Mean Temperature 78 °F -  
Max Temperature 82 °F 88 °F 100 °F (1998)
Min Temperature 73 °F 68 °F 66 °F (2012)
Cooling Degree Days 12    
Growing Degree Days 28 (Base 50)    
Moisture  
Dew Point 72 °F    
Average Humidity 83    
Maximum Humidity 94    
Minimum Humidity 66    
Precipitation  
Precipitation 0.50 in - - ()
Sea Level Pressure  
Sea Level Pressure 29.84 in    
Wind  
Wind Speed 2 mph (WSW)    
Max Wind Speed 20 mph    
Max Gust Speed 24 mph    
Visibility 10 miles    
Events Rain , Thunderstorm    
Averages and records for this station are not official NWS values.
T = Trace of Precipitation, MM = Missing Value Source: NWS Daily Summary

Daily Weather History Graph

Daily Weather History Graph

Search for Another Location

Airport or City:

Trip Planner

Search our weather history database for the weather conditions in past years. The results will help you decide how hot, cold, wet, or windy it might be!

Date:

Astronomy

Jun. 29, 2013 Rise Set
Actual Time 6:34 AM EDT 8:32 PM EDT
Civil Twilight 6:07 AM EDT 8:59 PM EDT
Nautical Twilight 5:35 AM EDT 9:32 PM EDT
Astronomical Twilight 5:00 AM EDT 10:07 PM EDT
Moon 12:33 AM EDT (6/29) 1:09 PM EDT (6/29)
Length of Visible Light 14h 51m
Length of Day
13h 57m
Waning Gibbous, 56% of the Moon is Illuminated
Jun 29
Waning Gibbous
Jun 30
Last Quarter
Jul 8
New
Jul 15
First Quarter
Jul 22
Full

Hourly Weather History & Observations

Time (EDT) Temp. Heat Index Dew Point Humidity Pressure Visibility Wind Dir Wind Speed Gust Speed Precip Events Conditions
12:15 AM 78.8 °F - 73.4 °F 83% 29.86 in 10.0 mi Calm Calm - N/A   Clear
12:35 AM 78.8 °F - 73.4 °F 83% 29.86 in 10.0 mi Calm Calm - N/A   Clear
12:55 AM 78.8 °F - 73.4 °F 83% 29.85 in 10.0 mi Calm Calm - N/A   Clear
1:15 AM 78.8 °F - 73.4 °F 83% 29.84 in 10.0 mi Calm Calm - N/A   Clear
1:35 AM 78.8 °F - 73.4 °F 83% 29.83 in 10.0 mi Calm Calm - N/A   Clear
1:55 AM 78.8 °F - 73.4 °F 83% 29.83 in 10.0 mi Calm Calm - N/A   Clear
2:15 AM 77.0 °F - 73.4 °F 89% 29.83 in 10.0 mi Calm Calm - N/A   Clear
2:35 AM 77.0 °F - 73.4 °F 89% 29.83 in 10.0 mi Calm Calm - N/A   Clear
2:55 AM 77.0 °F - 73.4 °F 89% 29.83 in 10.0 mi Calm Calm - N/A   Mostly Cloudy
3:15 AM 77.0 °F - 73.4 °F 89% 29.83 in 10.0 mi Calm Calm - N/A   Scattered Clouds
3:35 AM 77.0 °F - 73.4 °F 89% 29.83 in 10.0 mi Calm Calm - N/A   Mostly Cloudy
3:55 AM 77.0 °F - 73.4 °F 89% 29.83 in 10.0 mi SE 3.5 mph - N/A   Mostly Cloudy
4:15 AM 77.0 °F - 73.4 °F 89% 29.84 in 10.0 mi SW 8.1 mph - N/A Thunderstorm Overcast
4:35 AM 77.0 °F - 68.0 °F 74% 29.85 in 10.0 mi Calm Calm - N/A   Overcast
4:55 AM 77.0 °F - 71.6 °F 83% 29.84 in 10.0 mi Calm Calm - N/A   Mostly Cloudy
5:15 AM 77.0 °F - 73.4 °F 89% 29.84 in 4.0 mi West 5.8 mph - 0.23 in Rain Heavy Rain
5:35 AM 77.0 °F - 73.4 °F 89% 29.84 in 10.0 mi West 15.0 mph 21.9 mph 0.24 in   Mostly Cloudy
5:55 AM 73.4 °F - 71.6 °F 94% 29.84 in 5.0 mi Calm Calm - 0.41 in Rain , Thunderstorm Light Thunderstorms and Rain
6:15 AM 73.4 °F - 71.6 °F 94% 29.84 in 10.0 mi South 5.8 mph - N/A Rain , Thunderstorm Light Thunderstorms and Rain
6:35 AM 73.4 °F - 69.8 °F 88% 29.83 in 10.0 mi Calm Calm - N/A   Scattered Clouds
6:55 AM 73.4 °F - 69.8 °F 88% 29.84 in 10.0 mi SSW 3.5 mph - N/A Thunderstorm Clear
7:15 AM 73.4 °F - 69.8 °F 88% 29.86 in 10.0 mi Calm Calm - N/A   Scattered Clouds
7:35 AM 75.2 °F - 71.6 °F 89% 29.86 in 10.0 mi Calm Calm - N/A Rain , Thunderstorm Rain
7:55 AM 75.2 °F - 73.4 °F 94% 29.85 in 5.0 mi Calm Calm - 0.01 in Rain , Thunderstorm Light Thunderstorms and Rain
8:15 AM 75.2 °F - 73.4 °F 94% 29.84 in 10.0 mi Calm Calm - N/A Rain Light Rain
8:35 AM 77.0 °F - 73.4 °F 89% 29.84 in 10.0 mi Calm Calm - N/A   Clear
8:55 AM 77.0 °F - 71.6 °F 83% 29.86 in 10.0 mi Calm Calm - N/A Thunderstorm Scattered Clouds
9:15 AM 78.8 °F - 73.4 °F 83% 29.86 in 10.0 mi Calm Calm - N/A   Scattered Clouds
9:35 AM 78.8 °F - 73.4 °F 83% 29.86 in 10.0 mi Calm Calm - N/A   Scattered Clouds
9:55 AM 80.6 °F 85.4 °F 73.4 °F 79% 29.86 in 10.0 mi Calm Calm - N/A   Scattered Clouds
10:15 AM 80.6 °F 85.4 °F 73.4 °F 79% 29.86 in 10.0 mi South 3.5 mph - N/A   Mostly Cloudy
10:35 AM 80.6 °F 85.4 °F 73.4 °F 79% 29.86 in 10.0 mi WSW 5.8 mph - N/A   Scattered Clouds
10:55 AM 77.0 °F - 71.6 °F 83% 29.88 in 10.0 mi WNW 6.9 mph - N/A   Mostly Cloudy
11:15 AM 77.0 °F - 71.6 °F 83% 29.88 in 10.0 mi West 6.9 mph - N/A   Overcast
11:35 AM 78.8 °F - 73.4 °F 83% 29.88 in 10.0 mi NNW 3.5 mph - N/A   Mostly Cloudy
11:55 AM 78.8 °F - 73.4 °F 83% 29.89 in 10.0 mi NW 6.9 mph - N/A   Mostly Cloudy
12:15 PM 77.0 °F - 73.4 °F 89% 29.88 in 10.0 mi Calm Calm - 0.01 in   Mostly Cloudy
12:35 PM 77.0 °F - 73.4 °F 89% 29.85 in 10.0 mi SW 3.5 mph - 0.01 in   Scattered Clouds
12:55 PM 80.6 °F 84.6 °F 71.6 °F 74% 29.86 in 10.0 mi SW 4.6 mph - 0.01 in Thunderstorm Scattered Clouds
1:15 PM 80.6 °F 84.6 °F 71.6 °F 74% 29.86 in 10.0 mi WSW 4.6 mph - N/A Thunderstorm Mostly Cloudy
1:35 PM 77.0 °F - 69.8 °F 78% 29.88 in 10.0 mi WSW 19.6 mph 24.2 mph N/A Rain Rain
1:55 PM 73.4 °F - 71.6 °F 94% 29.85 in 4.0 mi WSW 6.9 mph 16.1 mph 0.03 in Rain Light Rain
2:15 PM 73.4 °F - 71.6 °F 94% 29.84 in 10.0 mi WSW 4.6 mph - 0.01 in Rain Rain
2:35 PM 73.4 °F - 71.6 °F 94% 29.83 in 7.0 mi Calm Calm - 0.04 in Rain Light Rain
2:55 PM 77.0 °F - 73.4 °F 89% 29.83 in 10.0 mi SW 4.6 mph - 0.04 in   Scattered Clouds
3:15 PM 78.8 °F - 73.4 °F 83% 29.83 in 10.0 mi WSW 4.6 mph - N/A   Scattered Clouds
3:35 PM 78.8 °F - 73.4 °F 83% 29.82 in 10.0 mi WSW 6.9 mph - N/A   Mostly Cloudy
3:55 PM 78.8 °F - 73.4 °F 83% 29.82 in 10.0 mi WSW 9.2 mph - N/A   Scattered Clouds
4:15 PM 80.6 °F 85.4 °F 73.4 °F 79% 29.81 in 10.0 mi Calm Calm - N/A   Scattered Clouds
4:35 PM 80.6 °F 85.4 °F 73.4 °F 79% 29.80 in 10.0 mi WSW 3.5 mph - N/A   Clear
4:55 PM 80.6 °F 85.4 °F 73.4 °F 79% 29.80 in 10.0 mi WSW 5.8 mph - N/A   Scattered Clouds
5:15 PM 80.6 °F 84.6 °F 71.6 °F 74% 29.81 in 10.0 mi WSW 4.6 mph - N/A   Scattered Clouds
5:35 PM 82.4 °F 87.2 °F 71.6 °F 70% 29.80 in 10.0 mi West 5.8 mph - N/A   Scattered Clouds
5:55 PM 80.6 °F 84.6 °F 71.6 °F 74% 29.80 in 10.0 mi SSW 3.5 mph - N/A   Mostly Cloudy
6:15 PM 80.6 °F 85.4 °F 73.4 °F 79% 29.80 in 10.0 mi SW 3.5 mph - N/A   Mostly Cloudy
6:35 PM 82.4 °F 87.2 °F 71.6 °F 70% 29.79 in 10.0 mi SW 4.6 mph - N/A   Scattered Clouds
6:55 PM 82.4 °F 87.2 °F 71.6 °F 70% 29.79 in 10.0 mi SW 3.5 mph - N/A   Scattered Clouds
7:15 PM 82.4 °F 86.3 °F 69.8 °F 66% 29.80 in 10.0 mi WSW 10.4 mph - N/A   Scattered Clouds
7:35 PM 82.4 °F 87.2 °F 71.6 °F 70% 29.81 in 10.0 mi WSW 6.9 mph - N/A   Scattered Clouds
7:55 PM 80.6 °F 83.9 °F 69.8 °F 70% 29.81 in 10.0 mi WSW 5.8 mph - N/A   Scattered Clouds
8:15 PM 80.6 °F 83.9 °F 69.8 °F 70% 29.81 in 10.0 mi WSW 5.8 mph - N/A   Scattered Clouds
8:35 PM 78.8 °F - 69.8 °F 74% 29.82 in 10.0 mi Calm Calm - N/A   Clear
8:55 PM 77.0 °F - 71.6 °F 83% 29.81 in 10.0 mi Calm Calm - N/A   Clear
9:15 PM 77.0 °F - 71.6 °F 83% 29.82 in 10.0 mi Calm Calm - N/A   Clear
9:35 PM 77.0 °F - 71.6 °F 83% 29.82 in 10.0 mi Calm Calm - N/A   Clear
9:55 PM 77.0 °F - 71.6 °F 83% 29.83 in 10.0 mi Calm Calm - N/A   Clear
10:15 PM 77.0 °F - 71.6 °F 83% 29.83 in 10.0 mi Calm Calm - N/A   Clear
10:35 PM 77.0 °F - 71.6 °F 83% 29.84 in 10.0 mi Calm Calm - N/A   Clear
10:55 PM 77.0 °F - 71.6 °F 83% 29.85 in 10.0 mi Calm Calm - N/A   Clear
11:15 PM 77.0 °F - 73.4 °F 89% 29.84 in 10.0 mi Calm Calm - N/A   Clear
11:35 PM 77.0 °F - 73.4 °F 89% 29.84 in 10.0 mi Calm Calm - N/A   Clear
11:55 PM 77.0 °F - 73.4 °F 89% 29.84 in 10.0 mi Calm Calm - N/A   Clear